Time,TemperatureF,DewpointF,PressureIn,WindDirection,WindDirectionDegrees,WindSpeedMPH,WindSpeedGustMPH,Humidity,HourlyPrecipIn,Conditions,Clouds,dailyrainin,SoftwareType,DateUTC
2013-02-04 00:04:00,51.6,49.0,30.12,SW,215,0.0,0.0,92,0.00,,,0.00,weatherlink.com 1.10,2013-02-04 05:04:00,
2013-02-04 00:19:00,51.6,50.0,30.12,SW,215,0.0,0.0,94,0.00,,,0.00,weatherlink.com 1.10,2013-02-04 05:19:00,
2013-02-04 00:34:00,51.8,51.0,30.11,SW,214,0.0,0.0,95,0.00,,,0.00,weatherlink.com 1.10,2013-02-04 05:34:00,
2013-02-04 00:49:00,51.6,50.0,30.11,SW,219,1.0,1.0,95,0.00,,,0.00,weatherlink.com 1.10,2013-02-04 05:49:00,
2013-02-04 01:04:00,52.1,51.0,30.11,NNE,22,0.0,0.0,96,0.00,,,0.00,weatherlink.com 1.10,2013-02-04 06:04:00,
2013-02-04 01:19:00,51.9,51.0,30.11,NNE,30,0.0,1.0,96,0.00,,,0.00,weatherlink.com 1.10,2013-02-04 06:19:00,
2013-02-04 01:34:00,51.7,50.0,30.11,NNE,25,0.0,0.0,95,0.00,,,0.00,weatherlink.com 1.10,2013-02-04 06:34:00,
2013-02-04 01:49:00,51.2,50.0,30.11,NNE,25,0.0,0.0,96,0.00,,,0.00,weatherlink.com 1.10,2013-02-04 06:49:00,
2013-02-04 02:04:00,50.8,50.0,30.10,NNE,13,0.0,0.0,96,0.00,,,0.00,weatherlink.com 1.10,2013-02-04 07:04:00,
2013-02-04 02:19:00,50.3,50.0,30.10,NNE,13,0.0,0.0,97,0.00,,,0.00,weatherlink.com 1.10,2013-02-04 07:19:00,
2013-02-04 02:34:00,49.9,49.0,30.11,NNE,13,0.0,0.0,97,0.00,,,0.00,weatherlink.com 1.10,2013-02-04 07:34:00,
2013-02-04 02:49:00,49.6,49.0,30.11,NNE,13,0.0,0.0,97,0.00,,,0.00,weatherlink.com 1.10,2013-02-04 07:49:00,
2013-02-04 03:04:00,48.9,48.0,30.11,North,9,0.0,0.0,97,0.00,,,0.00,weatherlink.com 1.10,2013-02-04 08:04:00,
2013-02-04 03:19:00,48.8,48.0,30.11,NNE,21,3.0,3.0,97,0.00,,,0.00,weatherlink.com 1.10,2013-02-04 08:19:00,
2013-02-04 03:34:00,49.4,49.0,30.11,North,352,2.0,4.0,98,0.00,,,0.00,weatherlink.com 1.10,2013-02-04 08:34:00,
2013-02-04 03:49:00,49.1,49.0,30.10,NNW,345,1.0,4.0,98,0.00,,,0.00,weatherlink.com 1.10,2013-02-04 08:49:00,
2013-02-04 04:05:00,48.8,48.0,30.10,NNE,16,2.0,4.0,97,0.00,,,0.00,weatherlink.com 1.10,2013-02-04 09:05:00,
2013-02-04 04:20:00,48.3,48.0,30.10,North,360,0.0,3.0,97,0.00,,,0.00,weatherlink.com 1.10,2013-02-04 09:20:00,
2013-02-04 04:35:00,47.7,47.0,30.10,NNE,21,0.0,3.0,97,0.00,,,0.00,weatherlink.com 1.10,2013-02-04 09:35:00,
2013-02-04 04:50:00,47.2,46.0,30.10,North,1,0.0,1.0,97,0.00,,,0.00,weatherlink.com 1.10,2013-02-04 09:50:00,
2013-02-04 05:05:00,46.4,46.0,30.11,NNE,18,0.0,0.0,97,0.00,,,0.00,weatherlink.com 1.10,2013-02-04 10:05:00,
2013-02-04 05:20:00,45.5,45.0,30.11,NNE,18,0.0,0.0,97,0.00,,,0.00,weatherlink.com 1.10,2013-02-04 10:20:00,
2013-02-04 05:35:00,44.3,44.0,30.11,NNE,17,0.0,0.0,97,0.00,,,0.00,weatherlink.com 1.10,2013-02-04 10:35:00,
2013-02-04 05:50:00,45.3,45.0,30.11,NNE,18,0.0,0.0,98,0.00,,,0.00,weatherlink.com 1.10,2013-02-04 10:50:00,
2013-02-04 06:05:00,45.1,45.0,30.11,NNE,18,0.0,1.0,98,0.00,,,0.00,weatherlink.com 1.10,2013-02-04 11:05:00,
2013-02-04 06:20:00,44.4,44.0,30.12,NNE,18,0.0,0.0,98,0.00,,,0.00,weatherlink.com 1.10,2013-02-04 11:20:00,
2013-02-04 06:35:00,44.1,44.0,30.12,NNE,18,0.0,0.0,98,0.00,,,0.00,weatherlink.com 1.10,2013-02-04 11:35:00,
2013-02-04 06:50:00,43.8,43.0,30.12,NNE,18,0.0,0.0,98,0.00,,,0.00,weatherlink.com 1.10,2013-02-04 11:50:00,
2013-02-04 07:05:00,43.7,44.0,30.13,NNE,18,0.0,0.0,99,0.00,,,0.00,weatherlink.com 1.10,2013-02-04 12:05:00,
2013-02-04 07:20:00,43.0,43.0,30.13,NNE,18,0.0,0.0,98,0.00,,,0.00,weatherlink.com 1.10,2013-02-04 12:20:00,
2013-02-04 07:35:00,42.6,42.0,30.13,NNE,18,0.0,0.0,98,0.00,,,0.00,weatherlink.com 1.10,2013-02-04 12:35:00,
2013-02-04 07:50:00,43.5,43.0,30.14,NNE,18,0.0,0.0,99,0.00,,,0.00,weatherlink.com 1.10,2013-02-04 12:50:00,
2013-02-04 08:05:00,45.1,45.0,30.14,NNE,18,0.0,0.0,99,0.00,,,0.00,weatherlink.com 1.10,2013-02-04 13:05:00,
2013-02-04 08:20:00,47.6,48.0,30.14,NE,36,0.0,2.0,100,0.01,,,0.01,weatherlink.com 1.10,2013-02-04 13:20:00,
2013-02-04 08:35:00,49.1,49.0,30.14,NE,43,2.0,4.0,99,0.01,,,0.01,weatherlink.com 1.10,2013-02-04 13:35:00,
2013-02-04 08:50:00,51.3,51.0,30.15,NE,46,2.0,4.0,98,0.01,,,0.01,weatherlink.com 1.10,2013-02-04 13:50:00,
2013-02-04 09:05:00,53.1,52.0,30.15,NE,53,5.0,5.0,94,0.01,,,0.01,weatherlink.com 1.10,2013-02-04 14:05:00,
2013-02-04 09:20:00,55.0,51.0,30.16,NNE,30,4.0,6.0,86,0.00,,,0.01,weatherlink.com 1.10,2013-02-04 14:20:00,
2013-02-04 09:35:00,57.1,51.0,30.16,NE,38,2.0,6.0,79,0.00,,,0.01,weatherlink.com 1.10,2013-02-04 14:35:00,
2013-02-04 09:50:00,58.2,50.0,30.16,NE,41,3.0,6.0,73,0.00,,,0.01,weatherlink.com 1.10,2013-02-04 14:50:00,
2013-02-04 10:05:00,59.8,48.0,30.15,NNE,32,8.0,8.0,65,0.00,,,0.01,weatherlink.com 1.10,2013-02-04 15:05:00,
2013-02-04 10:21:00,61.1,45.0,30.15,ENE,61,4.0,9.0,56,0.00,,,0.01,weatherlink.com 1.10,2013-02-04 15:21:00,
2013-02-04 10:36:00,62.0,43.0,30.15,ENE,61,6.0,9.0,51,0.00,,,0.01,weatherlink.com 1.10,2013-02-04 15:36:00,
2013-02-04 10:51:00,62.6,42.0,30.14,ENE,70,6.0,11.0,48,0.00,,,0.01,weatherlink.com 1.10,2013-02-04 15:51:00,
2013-02-04 11:06:00,63.6,42.0,30.14,ENE,68,7.0,11.0,46,0.00,,,0.01,weatherlink.com 1.10,2013-02-04 16:06:00,
2013-02-04 11:21:00,63.9,40.0,30.12,NE,41,7.0,11.0,42,0.00,,,0.01,weatherlink.com 1.10,2013-02-04 16:21:00,
2013-02-04 11:36:00,64.4,41.0,30.12,East,85,2.0,9.0,42,0.00,,,0.01,weatherlink.com 1.10,2013-02-04 16:36:00,
2013-02-04 11:51:00,65.6,41.0,30.12,SSW,193,2.0,8.0,41,0.00,,,0.01,weatherlink.com 1.10,2013-02-04 16:51:00,
2013-02-04 12:06:00,66.9,41.0,30.12,SE,138,1.0,5.0,39,0.00,,,0.01,weatherlink.com 1.10,2013-02-04 17:06:00,
2013-02-04 12:21:00,67.5,40.0,30.11,SSE,153,1.0,7.0,37,0.00,,,0.01,weatherlink.com 1.10,2013-02-04 17:21:00,
2013-02-04 12:36:00,67.8,40.0,30.11,ENE,60,4.0,8.0,37,0.00,,,0.01,weatherlink.com 1.10,2013-02-04 17:36:00,
2013-02-04 12:51:00,67.9,40.0,30.10,ENE,67,1.0,5.0,36,0.00,,,0.01,weatherlink.com 1.10,2013-02-04 17:51:00,
2013-02-04 13:06:00,68.4,40.0,30.09,ESE,110,0.0,6.0,35,0.00,,,0.01,weatherlink.com 1.10,2013-02-04 18:06:00,
2013-02-04 13:21:00,69.0,39.0,30.08,SE,133,2.0,5.0,33,0.00,,,0.01,weatherlink.com 1.10,2013-02-04 18:21:00,
2013-02-04 13:36:00,69.9,39.0,30.07,SE,125,3.0,6.0,33,0.00,,,0.01,weatherlink.com 1.10,2013-02-04 18:36:00,
2013-02-04 13:51:00,70.0,38.0,30.06,NNE,27,0.0,6.0,31,0.00,,,0.01,weatherlink.com 1.10,2013-02-04 18:51:00,
2013-02-04 14:06:00,70.2,38.0,30.05,SW,225,2.0,6.0,31,0.00,,,0.01,weatherlink.com 1.10,2013-02-04 19:06:00,
2013-02-04 14:21:00,70.3,36.0,30.05,South,183,3.0,6.0,29,0.00,,,0.01,weatherlink.com 1.10,2013-02-04 19:21:00,
2013-02-04 14:36:00,71.2,35.0,30.04,South,181,7.0,9.0,27,0.00,,,0.01,weatherlink.com 1.10,2013-02-04 19:36:00,
2013-02-04 14:51:00,71.4,33.0,30.04,SSE,166,6.0,10.0,24,0.00,,,0.01,weatherlink.com 1.10,2013-02-04 19:51:00,
2013-02-04 15:06:00,71.5,40.0,30.04,WSW,240,5.0,8.0,32,0.00,,,0.01,weatherlink.com 1.10,2013-02-04 20:06:00,
2013-02-04 15:21:00,71.7,33.0,30.04,SE,137,0.0,9.0,24,0.00,,,0.01,weatherlink.com 1.10,2013-02-04 20:21:00,
2013-02-04 15:36:00,71.6,32.0,30.04,SSW,205,6.0,7.0,23,0.00,,,0.01,weatherlink.com 1.10,2013-02-04 20:36:00,
2013-02-04 15:51:00,71.4,24.0,30.04,SW,222,3.0,8.0,17,0.00,,,0.01,weatherlink.com 1.10,2013-02-04 20:51:00,
2013-02-04 16:06:00,71.8,26.0,30.04,SW,224,3.0,8.0,18,0.00,,,0.01,weatherlink.com 1.10,2013-02-04 21:06:00,
2013-02-04 16:21:00,71.7,20.0,30.04,SW,219,3.0,8.0,14,0.00,,,0.01,weatherlink.com 1.10,2013-02-04 21:21:00,
2013-02-04 16:36:00,71.7,23.0,30.04,SSW,204,2.0,6.0,16,0.00,,,0.01,weatherlink.com 1.10,2013-02-04 21:36:00,
2013-02-04 16:51:00,70.6,42.0,30.04,West,266,3.0,8.0,35,0.00,,,0.01,weatherlink.com 1.10,2013-02-04 21:51:00,
2013-02-04 17:06:00,68.9,41.0,30.04,West,270,5.0,8.0,37,0.00,,,0.01,weatherlink.com 1.10,2013-02-04 22:06:00,
2013-02-04 17:21:00,67.4,46.0,30.05,West,281,5.0,8.0,46,0.00,,,0.01,weatherlink.com 1.10,2013-02-04 22:21:00,
2013-02-04 17:36:00,65.8,47.0,30.05,West,274,4.0,6.0,51,0.00,,,0.01,weatherlink.com 1.10,2013-02-04 22:36:00,
2013-02-04 17:51:00,64.5,47.0,30.05,West,269,3.0,7.0,54,0.00,,,0.01,weatherlink.com 1.10,2013-02-04 22:51:00,
2013-02-04 18:06:00,63.0,48.0,30.05,West,259,3.0,3.0,58,0.00,,,0.01,weatherlink.com 1.10,2013-02-04 23:06:00,
2013-02-04 18:21:00,60.5,48.0,30.05,WNW,293,1.0,3.0,63,0.00,,,0.01,weatherlink.com 1.10,2013-02-04 23:21:00,
2013-02-04 18:37:00,59.2,48.0,30.06,WNW,282,0.0,0.0,67,0.00,,,0.01,weatherlink.com 1.10,2013-02-04 23:37:00,
2013-02-04 18:52:00,58.4,48.0,30.06,WNW,290,0.0,0.0,68,0.00,,,0.01,weatherlink.com 1.10,2013-02-04 23:52:00,
2013-02-04 19:07:00,57.8,48.0,30.06,West,269,0.0,0.0,69,0.00,,,0.01,weatherlink.com 1.10,2013-02-05 00:07:00,
2013-02-04 19:22:00,56.8,47.0,30.06,West,266,0.0,0.0,70,0.00,,,0.01,weatherlink.com 1.10,2013-02-05 00:22:00,
2013-02-04 19:37:00,55.1,47.0,30.06,West,267,0.0,0.0,73,0.00,,,0.01,weatherlink.com 1.10,2013-02-05 00:37:00,
2013-02-04 19:52:00,54.1,46.0,30.07,West,267,0.0,0.0,75,0.00,,,0.01,weatherlink.com 1.10,2013-02-05 00:52:00,
2013-02-04 20:07:00,53.3,47.0,30.07,WSW,239,0.0,0.0,78,0.00,,,0.01,weatherlink.com 1.10,2013-02-05 01:07:00,
2013-02-04 20:22:00,53.8,47.0,30.08,NNW,329,0.0,0.0,78,0.00,,,0.01,weatherlink.com 1.10,2013-02-05 01:22:00,
2013-02-04 20:37:00,53.6,47.0,30.07,NNW,329,0.0,0.0,79,0.00,,,0.01,weatherlink.com 1.10,2013-02-05 01:37:00,
2013-02-04 20:52:00,53.9,48.0,30.07,NNW,328,0.0,0.0,79,0.00,,,0.01,weatherlink.com 1.10,2013-02-05 01:52:00,
2013-02-04 21:07:00,53.7,48.0,30.07,NNW,329,0.0,0.0,80,0.00,,,0.01,weatherlink.com 1.10,2013-02-05 02:07:00,
2013-02-04 21:22:00,53.2,47.0,30.07,WNW,290,0.0,0.0,80,0.00,,,0.01,weatherlink.com 1.10,2013-02-05 02:22:00,
2013-02-04 21:37:00,52.7,47.0,30.07,WNW,290,0.0,0.0,82,0.00,,,0.01,weatherlink.com 1.10,2013-02-05 02:37:00,
2013-02-04 21:52:00,52.3,47.0,30.07,WNW,289,0.0,0.0,82,0.00,,,0.01,weatherlink.com 1.10,2013-02-05 02:52:00,
2013-02-04 22:07:00,51.9,47.0,30.08,NW,309,0.0,0.0,84,0.00,,,0.01,weatherlink.com 1.10,2013-02-05 03:07:00,
2013-02-04 22:22:00,51.7,47.0,30.08,NW,309,0.0,0.0,84,0.00,,,0.01,weatherlink.com 1.10,2013-02-05 03:22:00,
2013-02-04 22:37:00,51.6,48.0,30.08,NW,309,0.0,0.0,86,0.00,,,0.01,weatherlink.com 1.10,2013-02-05 03:37:00,
2013-02-04 22:52:00,51.8,48.0,30.08,NNE,15,0.0,1.0,87,0.00,,,0.01,weatherlink.com 1.10,2013-02-05 03:52:00,
2013-02-04 23:07:00,52.2,48.0,30.09,NNE,13,0.0,3.0,86,0.00,,,0.01,weatherlink.com 1.10,2013-02-05 04:07:00,
2013-02-04 23:22:00,52.3,48.0,30.09,North,357,1.0,2.0,85,0.00,,,0.01,weatherlink.com 1.10,2013-02-05 04:22:00,
2013-02-04 23:37:00,52.4,48.0,30.09,NNE,18,1.0,3.0,84,0.00,,,0.01,weatherlink.com 1.10,2013-02-05 04:37:00,
2013-02-04 23:52:00,52.0,48.0,30.08,North,11,2.0,2.0,85,0.00,,,0.01,weatherlink.com 1.10,2013-02-05 04:52:00,